Home > Weather > Enschede > Past weeks

Flag for Netherlands Weather for the Past 2 Weeks in Enschede, Netherlands

Now
75 °F

Passing clouds.


Feels Like: 77 °F
Forecast: 56 / 74 °F
Wind: 13 mph from Southeast

Location: Deelen

Current Time: May 6, 2016 at 7:40:19 PM

Latest Report: May 6, 2016 at 6:55 PM


Visibility: N/A

Pressure: 29.83 "Hg

Humidity: 36%

Dew Point: 46 °F

Location of EnschedeLocation

Historic Weather in Enschede — Graph

°F

Enschede Temperature Yesterday

Maximum temperature yesterday: 66 °F (at 4:25 PM)
Minimum temperature yesterday: 43 °F (at 6:25 AM)
Average temperature yesterday: 56 °F

High & Low Weather Summary for the Past Weeks

 TemperatureHumidityPressure
High75 °F (May 6, 3:55 PM)100% (Apr 23, 11:25 PM)30.39 "Hg (Apr 23, 11:25 PM)
Low32 °F (Apr 24, 2:55 AM)28% (May 5, 2:55 PM)29.45 "Hg (Apr 26, 5:55 AM)
Average46 °F72%30.01 "Hg
* Reported Apr 21 6:25 PM — May 6 6:25 PM, Enschede, Weather by CustomWeather, © 2016

Note: Actual official high and low records may vary slightly from our data, if they occured in-between our weather recording intervals... More about our weather records

Advertising

Enschede Weather History for the Previous 24 Hours

Scroll right to see more
 ConditionsComfort  
Time TempWeatherWind HumidityBarometerVisibility
6:25 PM
Fri, May 6
75 °FPassing clouds.10 mph34%29.86 "HgN/A
5:55 PM75 °FMild.13 mph31%29.86 "HgN/A
5:25 PM75 °FPassing clouds.12 mph34%29.86 "HgN/A
4:55 PM75 °FMild.14 mph31%29.86 "HgN/A
4:25 PM75 °FMild.14 mph31%29.86 "HgN/A
3:55 PM75 °FPassing clouds.13 mph34%29.89 "HgN/A
3:25 PM73 °FPassing clouds.12 mph33%29.89 "HgN/A
2:55 PM73 °FMild.15 mph36%29.89 "HgN/A
2:25 PM72 °FPassing clouds.12 mph38%29.89 "HgN/A
1:55 PM72 °FMild.15 mph41%29.92 "HgN/A
1:25 PM70 °FMild.14 mph46%29.92 "HgN/A
12:55 PM68 °FMild.15 mph49%29.95 "HgN/A
12:25 PM68 °FMild.13 mph49%29.95 "HgN/A
11:55 AM66 °FMild.13 mph52%29.95 "HgN/A
11:25 AM66 °FMild.13 mph52%29.95 "HgN/A
10:55 AM64 °FPassing clouds.13 mph52%29.95 "HgN/A
10:25 AM64 °FMild.12 mph56%29.98 "HgN/A
9:55 AM63 °FPassing clouds.15 mph56%29.98 "HgN/A
9:25 AM63 °FMild.13 mph56%29.98 "HgN/A
8:55 AM61 °FPassing clouds.12 mph59%29.98 "HgN/A
8:25 AM61 °FPassing clouds.10 mph55%30.01 "HgN/A
7:55 AM59 °FPassing clouds.10 mph59%30.01 "HgN/A
7:25 AM55 °FCool.9 mph67%30.01 "HgN/A
6:55 AM52 °FPassing clouds.8 mph72%30.01 "HgN/A
6:25 AM50 °FCool.7 mph76%30.04 "HgN/A
5:55 AM50 °FCool.7 mph76%30.04 "HgN/A
5:25 AM52 °FCool.8 mph72%30.04 "HgN/A
4:55 AM52 °FCool.7 mph72%30.04 "HgN/A
4:25 AM52 °FPassing clouds.7 mph72%30.04 "HgN/A
3:55 AM52 °FPassing clouds.8 mph72%30.04 "HgN/A
3:25 AM52 °FPassing clouds.7 mph72%30.04 "HgN/A
2:55 AM54 °FPassing clouds.8 mph67%30.07 "HgN/A
2:25 AM54 °FPassing clouds.7 mph67%30.07 "HgN/A
1:55 AM54 °FPassing clouds.7 mph67%30.07 "HgN/A
1:25 AM54 °FPassing clouds.7 mph67%30.07 "HgN/A
12:55 AM55 °FPassing clouds.8 mph59%30.07 "HgN/A
12:25 AM55 °FRefreshingly cool.8 mph59%30.07 "HgN/A
11:55 PM
Thu, May 5
57 °FPassing clouds.7 mph55%30.07 "HgN/A
11:25 PM57 °FPassing clouds.6 mph59%30.09 "HgN/A
10:55 PM57 °FPassing clouds.7 mph55%30.09 "HgN/A
10:25 PM57 °FPassing clouds.7 mph59%30.09 "HgN/A
9:55 PM57 °FRefreshingly cool.6 mph59%30.09 "HgN/A
9:25 PM59 °FPassing clouds.7 mph55%30.09 "HgN/A
8:55 PM61 °FRefreshingly cool.7 mph52%30.09 "HgN/A
8:25 PM63 °FMild.8 mph49%30.09 "HgN/A
7:55 PM64 °FMild.8 mph43%30.12 "HgN/A
7:25 PM66 °FPassing clouds.9 mph40%30.12 "HgN/A
Weather by CustomWeather, © 2016

See weather overviewHow to use our weather pages